DMSP 5D-2 F13 DEB, 40415

Orbit data source: Space-Track

DMSP 5D-2 F13 DEB, 40415 is space debris in SSO originally from a launch on Fri, 24 Mar 1995 UTC launched from the Air Force Western Test Range (AFWTR). Debris objects in space refer to the collection of defunct objects orbiting the Earth. Examples of debris include non-operational satellites, rocket bodies, and fragments generated from explosions, collisions, or faulty payload assembly.

Loading next visibility...
Identifier
40415, 1995-015AC
Orbit
SSO
Country
Flag of USUS
Related business
Manufacturer
Unknown
Mission
Spacecraft
Bus & Motor
Unknown
Mass
Unknown
Launch date (UTC)
1995-03-24 (31 years ago)
Launch vehicle
Unknown
Launch site
Air Force Western Test Range (AFWTR)
Object type
Payload
Rocket body
Debris
Shape & HBR
Unknown shape, 0.1 m
Radar Cross Section
Small (<0.1 m²)

Expand to show TLE details & history
Last TLE update: 10 hours ago

TLE from 10 hours ago
0 DMSP 5D-2 F13 DEB
1 40415U 95015AC  26012.81829991  .00002053  00000-0  83202-3 0  9990
2 40415  98.7332  40.1379 0006025  75.9612 284.2238 14.28813319563851
Epoch: 2026-01-12T19:38Z
TLE epoch observation values (Epoch: 2026-01-12T19:38:21.112Z)
Latitude
-0.00008°
Longitude
-6.75959°
Altitude
797.566 km
Speed
7.455 km/s
True Right ascension
02h 40m 33s
True Declination
0° 00' 00"
Sunlit
Object was in daylight at epoch
Visualization orbit readout
Latitude
Unknown
Longitude
Unknown
Altitude
Unknown
Speed
Unknown
Apparent Right ascension
Unknown
Apparent Declination
Unknown
Sunlit
N/A
Visualization observer readout
Local Sidereal Time
06:02:55
Azimuth
Unknown
Elevation
Unknown
Doppler factor
Unknown
Orbital elements
Apogee altitude
797.169 km
Perigee altitude
788.528 km
Semi-major axis
7,170.985 km
Eccentricity
0.0006
Inclination
98.7332°
RAAN
40.1379°
Arg. of periapsis
75.9612°
True anomaly
284.15686°
Mean anomaly
284.2238°
Eccentric anomaly
284.19033°
Mean motion
3.57417 °/min
Orbital period
100.72 mins
BSTAR
0.00083202
Loading maneuver chart data...
Computing Atmospheric mass density...

Documentation

Showing up to 5 results
|